Amateur Radio Satellites - All Passes

Search period start: 19 June 2013 19:41
Search period end: 20 June 2013 19:41
Location: Prairie State College, 41.5244°N, 87.6382°W

Satellite Date Start Highest point End Downlink Frequencies (MHz)
Time Altitude Azimuth
RS-15 19 Jun 19:45:12 19:55:59 50° 45° (NE) 20:06:26 29.354 - 29.394 USB, Beacon 29.352 USB
SO-67 19 Jun 20:00:23 20:03:54 58° 260° (W) 20:07:27 435.3500 MHz FM
MaSat-1 19 Jun 20:18:26 20:23:47 51° 297° (WNW) 20:27:57 437.345 MHz
STRAND 1 19 Jun 20:31:17 20:35:26 25° 295° (WNW) 20:39:34 ?
KITSAT 1 19 Jun 21:00:36 21:04:40 14° 340° (NNW) 21:08:45 435.175 FM
JAS-1B 19 Jun 21:01:39 21:06:22 19° 266° (W) 21:10:42 435.800 - 435.900 CW/SSB
Oscar 11 19 Jun 21:04:29 21:08:07 26° 68° (ENE) 21:11:47 145.825 FM, Beacon 2401.500 USB
JAS-2 19 Jun 21:07:50 21:15:03 59° 72° (ENE) 21:21:31 435.800 - 435.900 CW/SSB, 435.910 FM
ISS 19 Jun 21:11:43 21:14:43 30° 25° (NNE) 21:17:43 145.800 FM
HO-68 19 Jun 21:15:42 21:22:49 79° 72° (ENE) 21:30:00 435.675 MHz FM
Saudisat 1A 19 Jun 21:45:33 21:49:46 38° 116° (ESE) 21:54:01 436.775 MHz
RS-15 19 Jun 21:57:56 22:08:21 51° 249° (WSW) 22:18:38 29.354 - 29.394 USB, Beacon 29.352 USB
OPAL 19 Jun 22:02:10 22:06:49 39° 67° (ENE) 22:11:25 ?
PANSAT 19 Jun 22:05:31 22:06:25 11° 172° (S) 22:07:19 not established
Oscar 11 19 Jun 22:40:30 22:44:15 28° 264° (W) 22:48:03 145.825 FM, Beacon 2401.500 USB
ISS 19 Jun 22:48:22 22:51:30 38° 222° (SW) 22:54:37 145.800 FM
JAS-2 19 Jun 22:54:18 23:00:17 27° 266° (W) 23:05:51 435.800 - 435.900 CW/SSB, 435.910 FM
KITSAT 1 19 Jun 23:01:24 23:04:28 12° 12° (NNE) 23:07:33 435.175 FM
HO-68 19 Jun 23:06:31 23:11:14 19° 269° (W) 23:16:00 435.675 MHz FM
PCSat 19 Jun 23:21:31 23:21:59 10° 101° (E) 23:22:28 145.825 MHz
Oscar 10/S400 19 Jun 23:23:41 06:39:51 57° 118° (ESE) 09:39:52 145.825 - 145.975 CW/USB, Beacon 145.810 USB
Saudisat 1A 19 Jun 23:25:36 23:29:33 28° 314° (NW) 23:33:31 436.775 MHz
OPAL 19 Jun 23:41:43 23:45:48 25° 263° (W) 23:49:53 ?
PANSAT 19 Jun 23:44:45 23:45:58 11° 185° (S) 23:47:11 not established
Sapphire 19 Jun 23:52:18 23:56:12 21° 106° (ESE) 00:00:07 437.095 MHz 1200 baud AX-25 AFSK
SO-50 20 Jun 00:35:26 00:39:30 28° 114° (ESE) 00:43:31 436.795 FM
KITSAT 1 20 Jun 00:56:10 01:03:09 30° 41° (NE) 01:10:05 435.175 FM
PCSat 20 Jun 00:59:05 01:04:30 82° 118° (ESE) 01:09:57 145.825 MHz
Sapphire 20 Jun 01:33:53 01:39:11 56° 303° (WNW) 01:44:32 437.095 MHz 1200 baud AX-25 AFSK
Oscar 19 20 Jun 01:40:09 01:43:40 18° 92° (E) 01:47:09 437.125 CW, 437.150 USB
ITAMSAT 1 20 Jun 02:06:00 02:10:22 26° 95° (E) 02:14:42 435.822 SSB
AO-27 20 Jun 02:07:13 02:11:41 28° 95° (E) 02:16:06 436.795 MHz FM
SO-50 20 Jun 02:15:36 02:20:00 37° 311° (NW) 02:24:22 436.795 FM
Oscar 16 20 Jun 02:24:16 02:29:20 57° 101° (E) 02:34:21 437.025 USB, Beacon 2401.1428
AO-Echo 20 Jun 02:37:14 02:41:03 21° 93° (E) 02:44:54 ?
Uribyol 2 20 Jun 02:38:52 02:44:01 56° 101° (E) 02:49:06 436.500 FM
PCSat 20 Jun 02:44:55 02:48:36 18° 317° (NW) 02:52:19 145.825 MHz
KITSAT 1 20 Jun 02:51:13 02:59:21 76° 243° (WSW) 03:07:26 435.175 FM
Uosat F 20 Jun 02:59:48 03:00:53 11° 89° (E) 03:01:58 435.120 FM
Oscar 19 20 Jun 03:18:21 03:23:20 53° 288° (WNW) 03:28:17 437.125 CW, 437.150 USB
Sapphire 20 Jun 03:22:02 03:23:51 12° 325° (NW) 03:25:41 437.095 MHz 1200 baud AX-25 AFSK
ITAMSAT 1 20 Jun 03:45:08 03:49:57 39° 291° (WNW) 03:54:45 435.822 SSB
Gurwin Techsat 1B 20 Jun 03:46:17 03:51:01 32° 96° (E) 03:55:42 435.225 FM
AO-27 20 Jun 03:46:28 03:51:15 37° 292° (WNW) 03:56:00 436.795 MHz FM
UOSAT-12 20 Jun 03:51:24 03:55:49 57° 119° (ESE) 04:00:17 437.025 FM, 437.400 FM
Oscar 16 20 Jun 04:04:46 04:08:15 19° 298° (WNW) 04:11:43 437.025 USB, Beacon 2401.1428
AO-Echo 20 Jun 04:15:06 04:20:04 50° 288° (WNW) 04:25:08 ?
Uribyol 2 20 Jun 04:19:25 04:23:04 20° 298° (WNW) 04:26:41 436.500 FM
AO-7 20 Jun 04:27:28 04:33:22 21° 91° (E) 04:39:13 29.400 - 29.500 MHz
Uosat F 20 Jun 04:35:14 04:40:19 85° 285° (WNW) 04:45:23 435.120 FM
TMSAT-1 20 Jun 04:44:50 04:50:10 74° 103° (ESE) 04:55:27 436.925 FM
KITSAT 1 20 Jun 04:49:32 04:53:23 14° 261° (W) 04:57:14 435.175 FM
MaSat-1 20 Jun 05:00:58 05:03:27 48° 62° (ENE) 05:05:54 437.345 MHz
Gurwin Techsat 1B 20 Jun 05:26:14 05:30:58 33° 293° (WNW) 05:35:40 435.225 FM
UOSAT-12 20 Jun 05:32:58 05:36:20 20° 318° (NW) 05:39:45 437.025 FM, 437.400 FM
STRAND 1 20 Jun 06:07:41 06:12:43 61° 72° (ENE) 06:17:48 ?
Saudisat 1A 20 Jun 06:12:42 06:16:52 34° 49° (NE) 06:20:57 436.775 MHz
Uosat F 20 Jun 06:16:49 06:18:20 11° 302° (WNW) 06:19:50 435.120 FM
AO-7 20 Jun 06:18:37 06:27:02 83° 290° (WNW) 06:35:22 29.400 - 29.500 MHz
TMSAT-1 20 Jun 06:26:26 06:29:27 16° 300° (WNW) 06:32:28 436.925 FM
JAS-1B 20 Jun 06:53:36 06:56:42 14° 92° (E) 06:59:58 435.800 - 435.900 CW/SSB
Hamsat 20 Jun 07:08:52 07:12:33 26° 95° (E) 07:16:12 145.90 MHz
SO-67 20 Jun 07:29:05 07:30:07 11° 91° (E) 07:31:10 435.3500 MHz FM
STRAND 1 20 Jun 07:49:15 07:52:20 16° 269° (W) 07:55:27 ?
Saudisat 1A 20 Jun 07:52:36 07:56:27 28° 247° (WSW) 08:00:14 436.775 MHz
PCSat 20 Jun 08:05:24 08:07:58 13° 38° (NE) 08:10:32 145.825 MHz
AO-7 20 Jun 08:13:01 08:18:37 20° 310° (NW) 08:24:12 29.400 - 29.500 MHz
Sapphire 20 Jun 08:39:06 08:43:10 21° 45° (NE) 08:47:13 437.095 MHz 1200 baud AX-25 AFSK
JAS-1B 20 Jun 08:41:58 08:47:51 80° 286° (WNW) 08:54:35 435.800 - 435.900 CW/SSB
Hamsat 20 Jun 08:44:50 08:48:35 28° 291° (WNW) 08:52:18 145.90 MHz
HO-68 20 Jun 08:45:59 08:49:16 13° 88° (E) 08:52:31 435.675 MHz FM
SO-67 20 Jun 09:00:22 09:03:48 43° 286° (WNW) 09:07:13 435.3500 MHz FM
SO-50 20 Jun 09:07:05 09:11:02 28° 46° (NE) 09:14:54 436.795 FM
PCSat 20 Jun 09:47:02 09:52:28 67° 58° (ENE) 09:57:51 145.825 MHz
JAS-2 20 Jun 10:02:54 10:08:00 43° 98° (E) 10:12:53 435.800 - 435.900 CW/SSB, 435.910 FM
RS-15 20 Jun 10:10:20 10:19:47 28° 103° (ESE) 10:28:54 29.354 - 29.394 USB, Beacon 29.352 USB
Sapphire 20 Jun 10:21:43 10:27:08 69° 244° (WSW) 10:32:30 437.095 MHz 1200 baud AX-25 AFSK
Oscar 11 20 Jun 10:27:41 10:31:58 51° 100° (E) 10:36:12 145.825 FM, Beacon 2401.500 USB
HO-68 20 Jun 10:30:44 10:37:58 81° 106° (ESE) 10:45:10 435.675 MHz FM
JAS-1B 20 Jun 10:35:47 10:37:47 12° 303° (WNW) 10:39:50 435.800 - 435.900 CW/SSB
SO-50 20 Jun 10:47:34 10:51:41 35° 245° (WSW) 10:55:45 436.795 FM
PCSat 20 Jun 11:31:54 11:35:18 17° 256° (WSW) 11:38:42 145.825 MHz
JAS-2 20 Jun 11:48:41 11:52:50 23° 297° (WNW) 11:56:50 435.800 - 435.900 CW/SSB, 435.910 FM
OPAL 20 Jun 11:50:11 11:55:11 83° 106° (ESE) 12:00:11 ?
Oscar 11 20 Jun 12:05:09 12:07:46 16° 296° (WNW) 12:10:23 145.825 FM, Beacon 2401.500 USB
Oscar 16 20 Jun 12:06:32 12:08:02 11° 58° (ENE) 12:09:32 437.025 USB, Beacon 2401.1428
RS-15 20 Jun 12:18:59 12:31:01 81° 304° (WNW) 12:42:33 29.354 - 29.394 USB, Beacon 29.352 USB
HO-68 20 Jun 12:19:46 12:24:51 21° 304° (NW) 12:29:56 435.675 MHz FM
UOSAT-12 20 Jun 12:20:57 12:25:27 51° 53° (NE) 12:29:57 437.025 FM, 437.400 FM
Uribyol 2 20 Jun 12:21:42 12:23:29 12° 58° (ENE) 12:25:16 436.500 FM
Oscar 19 20 Jun 12:57:04 13:01:25 28° 66° (ENE) 13:05:45 437.125 CW, 437.150 USB
ITAMSAT 1 20 Jun 13:24:06 13:28:57 41° 69° (ENE) 13:33:49 435.822 SSB
AO-27 20 Jun 13:25:28 13:30:21 43° 69° (ENE) 13:35:17 436.795 MHz FM
OPAL 20 Jun 13:31:09 13:33:25 13° 303° (WNW) 13:35:40 ?
Oscar 16 20 Jun 13:41:23 13:46:34 83° 75° (ENE) 13:51:46 437.025 USB, Beacon 2401.1428
AO-Echo 20 Jun 13:50:55 13:54:43 25° 66° (ENE) 13:58:35 ?
Uribyol 2 20 Jun 13:56:55 14:02:09 85° 75° (ENE) 14:07:25 436.500 FM
UOSAT-12 20 Jun 14:02:04 14:05:15 19° 250° (WSW) 14:08:26 437.025 FM, 437.400 FM
Uosat F 20 Jun 14:12:20 14:15:30 17° 61° (ENE) 14:18:41 435.120 FM
TMSAT-1 20 Jun 14:28:47 14:31:52 16° 60° (ENE) 14:34:57 436.925 FM
RS-15 20 Jun 14:35:27 14:45:25 31° 330° (NNW) 14:55:05 29.354 - 29.394 USB, Beacon 29.352 USB
Oscar 19 20 Jun 14:35:53 14:40:37 36° 263° (W) 14:45:22 437.125 CW, 437.150 USB
ITAMSAT 1 20 Jun 15:04:20 15:08:34 25° 266° (W) 15:12:51 435.822 SSB
AO-27 20 Jun 15:05:54 15:10:02 24° 266° (W) 15:14:13 436.795 MHz FM
Gurwin Techsat 1B 20 Jun 15:07:29 15:12:35 50° 71° (ENE) 15:17:43 435.225 FM
Oscar 16 20 Jun 15:24:54 15:26:33 11° 271° (W) 15:28:12 437.025 USB, Beacon 2401.1428
AO-7 20 Jun 15:26:33 15:33:34 32° 57° (ENE) 15:40:36 29.400 - 29.500 MHz
KITSAT 1 20 Jun 15:29:00 15:32:52 14° 99° (E) 15:36:45 435.175 FM
AO-Echo 20 Jun 15:29:02 15:33:20 35° 263° (W) 15:37:45 ?
ISS 20 Jun 15:30:32 15:33:47 61° 141° (SE) 15:37:02 145.800 FM
Uribyol 2 20 Jun 15:40:39 15:42:17 11° 272° (W) 15:43:55 436.500 FM
Uosat F 20 Jun 15:48:51 15:53:48 62° 258° (WSW) 15:58:48 435.120 FM
TMSAT-1 20 Jun 16:05:53 16:11:10 73° 258° (WSW) 16:16:30 436.925 FM
Gurwin Techsat 1B 20 Jun 16:48:55 16:52:50 21° 268° (W) 16:56:46 435.225 FM
RS-15 20 Jun 16:54:45 17:02:55 21° 6° (N) 17:10:52 29.354 - 29.394 USB, Beacon 29.352 USB
ISS 20 Jun 17:07:58 17:10:43 24° 339° (NNW) 17:13:29 145.800 FM
AO-7 20 Jun 17:17:35 17:25:49 64° 256° (WSW) 17:34:08 29.400 - 29.500 MHz
KITSAT 1 20 Jun 17:18:52 17:26:54 77° 117° (ESE) 17:35:01 435.175 FM
JAS-1B 20 Jun 17:41:19 17:44:22 14° 58° (ENE) 17:47:17 435.800 - 435.900 CW/SSB
Hamsat 20 Jun 18:03:34 18:06:47 21° 66° (ENE) 18:10:02 145.90 MHz
STRAND 1 20 Jun 18:19:11 18:22:59 21° 93° (E) 18:26:46 ?
ISS 20 Jun 18:46:26 18:48:19 14° 359° (N) 18:50:12 145.800 FM
RS-15 20 Jun 19:09:08 19:19:32 41° 40° (NE) 19:29:37 29.354 - 29.394 USB, Beacon 29.352 USB
KITSAT 1 20 Jun 19:16:15 19:23:07 30° 319° (NW) 19:30:03 435.175 FM
HO-68 20 Jun 19:16:59 19:19:43 13° 49° (NE) 19:22:27 435.675 MHz FM
AO-7 20 Jun 19:19:10 19:20:10 10° 275° (W) 19:21:10 29.400 - 29.500 MHz
JAS-1B 20 Jun 19:27:27 19:34:24 89° 75° (ENE) 19:40:25 435.800 - 435.900 CW/SSB
MaSat-1 20 Jun 19:30:44 19:36:20 78° 115° (ESE) 19:40:37 437.345 MHz

Developed and maintained by Chris Peat, Heavens-Above GmbH. Please read the updated FAQ before sending e-mail. Imprint. DLR
